Retour au catalogue

SL-12 R/B(2)

ActifGEO
NORAD 28240·ROCKET BODY·🇷🇺 Russia

Lancé Apr 26, 2004 depuis Baikonur Cosmodrome

Loading…

TLE

FraisSource: Space-Track

Époque: Sep 14, 2026, 05:50 UTC

1 28240U 04015D   26257.24335750 -.00000328  00000-0  00000-0 0  9991
2 28240  13.3966  13.6861 0016289 331.5015 220.5086  1.00713229 82306

Suivez SL-12 R/B(2) en temps réel avec AllMySat

Download on the App Store